Index of /20260422/WXO-DD/model_gdps/15km/12/030
Name Last modified Size Description
Parent Directory -
20260422T12Z_MSC_GDPS_AbsoluteVorticity_IsbL-0200_LatLon0.15_PT030H.grib2 2026-04-22 16:02 1.5M
20260422T12Z_MSC_GDPS_AbsoluteVorticity_IsbL-0250_LatLon0.15_PT030H.grib2 2026-04-22 16:02 1.3M
20260422T12Z_MSC_GDPS_AbsoluteVorticity_IsbL-0500_LatLon0.15_PT030H.grib2 2026-04-22 16:02 1.5M
20260422T12Z_MSC_GDPS_AbsoluteVorticity_IsbL-0700_LatLon0.15_PT030H.grib2 2026-04-22 16:02 1.3M
20260422T12Z_MSC_GDPS_AbsoluteVorticity_IsbL-0850_LatLon0.15_PT030H.grib2 2026-04-22 16:02 1.6M
20260422T12Z_MSC_GDPS_AirTemp-Max_AGL-2m_LatLon0.15_PT030H.grib2 2026-04-22 16:02 739K
20260422T12Z_MSC_GDPS_AirTemp-Min_AGL-2m_LatLon0.15_PT030H.grib2 2026-04-22 16:02 788K
20260422T12Z_MSC_GDPS_AirTemp_AGL-120m_LatLon0.15_PT030H.grib2 2026-04-22 16:02 908K
20260422T12Z_MSC_GDPS_AirTemp_AGL-2m_LatLon0.15_PT030H.grib2 2026-04-22 16:02 1.0M
20260422T12Z_MSC_GDPS_AirTemp_AGL-40m_LatLon0.15_PT030H.grib2 2026-04-22 16:02 928K
20260422T12Z_MSC_GDPS_AirTemp_AGL-80m_LatLon0.15_PT030H.grib2 2026-04-22 16:02 917K
20260422T12Z_MSC_GDPS_AirTemp_IsbL-0001_LatLon0.15_PT030H.grib2 2026-04-22 16:02 644K
20260422T12Z_MSC_GDPS_AirTemp_IsbL-0005_LatLon0.15_PT030H.grib2 2026-04-22 16:02 682K
20260422T12Z_MSC_GDPS_AirTemp_IsbL-0010_LatLon0.15_PT030H.grib2 2026-04-22 16:02 758K
20260422T12Z_MSC_GDPS_AirTemp_IsbL-0020_LatLon0.15_PT030H.grib2 2026-04-22 16:02 701K
20260422T12Z_MSC_GDPS_AirTemp_IsbL-0030_LatLon0.15_PT030H.grib2 2026-04-22 16:02 754K
20260422T12Z_MSC_GDPS_AirTemp_IsbL-0050_LatLon0.15_PT030H.grib2 2026-04-22 16:02 814K
20260422T12Z_MSC_GDPS_AirTemp_IsbL-0100_LatLon0.15_PT030H.grib2 2026-04-22 16:02 956K
20260422T12Z_MSC_GDPS_AirTemp_IsbL-0150_LatLon0.15_PT030H.grib2 2026-04-22 16:02 1.0M
20260422T12Z_MSC_GDPS_AirTemp_IsbL-0175_LatLon0.15_PT030H.grib2 2026-04-22 16:02 1.0M
20260422T12Z_MSC_GDPS_AirTemp_IsbL-0200_LatLon0.15_PT030H.grib2 2026-04-22 16:02 1.0M
20260422T12Z_MSC_GDPS_AirTemp_IsbL-0225_LatLon0.15_PT030H.grib2 2026-04-22 16:02 1.0M
20260422T12Z_MSC_GDPS_AirTemp_IsbL-0250_LatLon0.15_PT030H.grib2 2026-04-22 16:02 1.0M
20260422T12Z_MSC_GDPS_AirTemp_IsbL-0275_LatLon0.15_PT030H.grib2 2026-04-22 16:02 1.0M
20260422T12Z_MSC_GDPS_AirTemp_IsbL-0300_LatLon0.15_PT030H.grib2 2026-04-22 16:02 1.0M
20260422T12Z_MSC_GDPS_AirTemp_IsbL-0350_LatLon0.15_PT030H.grib2 2026-04-22 16:02 937K
20260422T12Z_MSC_GDPS_AirTemp_IsbL-0400_LatLon0.15_PT030H.grib2 2026-04-22 16:02 948K
20260422T12Z_MSC_GDPS_AirTemp_IsbL-0450_LatLon0.15_PT030H.grib2 2026-04-22 16:02 970K
20260422T12Z_MSC_GDPS_AirTemp_IsbL-0500_LatLon0.15_PT030H.grib2 2026-04-22 16:02 1.0M
20260422T12Z_MSC_GDPS_AirTemp_IsbL-0550_LatLon0.15_PT030H.grib2 2026-04-22 16:02 811K
20260422T12Z_MSC_GDPS_AirTemp_IsbL-0600_LatLon0.15_PT030H.grib2 2026-04-22 16:02 900K
20260422T12Z_MSC_GDPS_AirTemp_IsbL-0650_LatLon0.15_PT030H.grib2 2026-04-22 16:02 923K
20260422T12Z_MSC_GDPS_AirTemp_IsbL-0700_LatLon0.15_PT030H.grib2 2026-04-22 16:02 955K
20260422T12Z_MSC_GDPS_AirTemp_IsbL-0750_LatLon0.15_PT030H.grib2 2026-04-22 16:02 1.0M
20260422T12Z_MSC_GDPS_AirTemp_IsbL-0800_LatLon0.15_PT030H.grib2 2026-04-22 16:02 1.1M
20260422T12Z_MSC_GDPS_AirTemp_IsbL-0850_LatLon0.15_PT030H.grib2 2026-04-22 16:02 1.1M
20260422T12Z_MSC_GDPS_AirTemp_IsbL-0875_LatLon0.15_PT030H.grib2 2026-04-22 16:02 1.1M
20260422T12Z_MSC_GDPS_AirTemp_IsbL-0900_LatLon0.15_PT030H.grib2 2026-04-22 16:02 1.1M
20260422T12Z_MSC_GDPS_AirTemp_IsbL-0925_LatLon0.15_PT030H.grib2 2026-04-22 16:02 1.1M
20260422T12Z_MSC_GDPS_AirTemp_IsbL-0950_LatLon0.15_PT030H.grib2 2026-04-22 16:02 1.1M
20260422T12Z_MSC_GDPS_AirTemp_IsbL-0970_LatLon0.15_PT030H.grib2 2026-04-22 16:02 1.1M
20260422T12Z_MSC_GDPS_AirTemp_IsbL-0985_LatLon0.15_PT030H.grib2 2026-04-22 16:02 1.1M
20260422T12Z_MSC_GDPS_AirTemp_IsbL-1000_LatLon0.15_PT030H.grib2 2026-04-22 16:02 1.1M
20260422T12Z_MSC_GDPS_AirTemp_IsbL-1015_LatLon0.15_PT030H.grib2 2026-04-22 16:02 1.1M
20260422T12Z_MSC_GDPS_Albedo_Sfc_LatLon0.15_PT030H.grib2 2026-04-22 16:02 250K
20260422T12Z_MSC_GDPS_CAPE_Sfc_LatLon0.15_PT030H.grib2 2026-04-22 16:02 3.7M
20260422T12Z_MSC_GDPS_CIN_Sfc_LatLon0.15_PT030H.grib2 2026-04-22 16:02 2.8M
20260422T12Z_MSC_GDPS_CloudWater_EAtm_LatLon0.15_PT030H.grib2 2026-04-22 16:02 528K
20260422T12Z_MSC_GDPS_ConvectivePrecip-Accum_Sfc_LatLon0.15_PT030H.grib2 2026-04-22 16:02 2.4M
20260422T12Z_MSC_GDPS_DewPointDepression_AGL-2m_LatLon0.15_PT030H.grib2 2026-04-22 16:02 753K
20260422T12Z_MSC_GDPS_DewPointDepression_IsbL-0010_LatLon0.15_PT030H.grib2 2026-04-22 16:02 24K
20260422T12Z_MSC_GDPS_DewPointDepression_IsbL-0020_LatLon0.15_PT030H.grib2 2026-04-22 16:02 72K
20260422T12Z_MSC_GDPS_DewPointDepression_IsbL-0030_LatLon0.15_PT030H.grib2 2026-04-22 16:02 77K
20260422T12Z_MSC_GDPS_DewPointDepression_IsbL-0050_LatLon0.15_PT030H.grib2 2026-04-22 16:02 356K
20260422T12Z_MSC_GDPS_DewPointDepression_IsbL-0100_LatLon0.15_PT030H.grib2 2026-04-22 16:02 403K
20260422T12Z_MSC_GDPS_DewPointDepression_IsbL-0150_LatLon0.15_PT030H.grib2 2026-04-22 16:02 479K
20260422T12Z_MSC_GDPS_DewPointDepression_IsbL-0175_LatLon0.15_PT030H.grib2 2026-04-22 16:02 571K
20260422T12Z_MSC_GDPS_DewPointDepression_IsbL-0200_LatLon0.15_PT030H.grib2 2026-04-22 16:02 654K
20260422T12Z_MSC_GDPS_DewPointDepression_IsbL-0225_LatLon0.15_PT030H.grib2 2026-04-22 16:02 772K
20260422T12Z_MSC_GDPS_DewPointDepression_IsbL-0250_LatLon0.15_PT030H.grib2 2026-04-22 16:02 869K
20260422T12Z_MSC_GDPS_DewPointDepression_IsbL-0275_LatLon0.15_PT030H.grib2 2026-04-22 16:02 893K
20260422T12Z_MSC_GDPS_DewPointDepression_IsbL-0300_LatLon0.15_PT030H.grib2 2026-04-22 16:02 937K
20260422T12Z_MSC_GDPS_DewPointDepression_IsbL-0350_LatLon0.15_PT030H.grib2 2026-04-22 16:02 963K
20260422T12Z_MSC_GDPS_DewPointDepression_IsbL-0400_LatLon0.15_PT030H.grib2 2026-04-22 16:02 1.0M
20260422T12Z_MSC_GDPS_DewPointDepression_IsbL-0450_LatLon0.15_PT030H.grib2 2026-04-22 16:02 1.0M
20260422T12Z_MSC_GDPS_DewPointDepression_IsbL-0500_LatLon0.15_PT030H.grib2 2026-04-22 16:02 1.0M
20260422T12Z_MSC_GDPS_DewPointDepression_IsbL-0550_LatLon0.15_PT030H.grib2 2026-04-22 16:02 1.0M
20260422T12Z_MSC_GDPS_DewPointDepression_IsbL-0600_LatLon0.15_PT030H.grib2 2026-04-22 16:02 1.0M
20260422T12Z_MSC_GDPS_DewPointDepression_IsbL-0650_LatLon0.15_PT030H.grib2 2026-04-22 16:02 1.1M
20260422T12Z_MSC_GDPS_DewPointDepression_IsbL-0700_LatLon0.15_PT030H.grib2 2026-04-22 16:02 1.1M
20260422T12Z_MSC_GDPS_DewPointDepression_IsbL-0750_LatLon0.15_PT030H.grib2 2026-04-22 16:02 1.1M
20260422T12Z_MSC_GDPS_DewPointDepression_IsbL-0800_LatLon0.15_PT030H.grib2 2026-04-22 16:02 1.1M
20260422T12Z_MSC_GDPS_DewPointDepression_IsbL-0850_LatLon0.15_PT030H.grib2 2026-04-22 16:02 1.1M
20260422T12Z_MSC_GDPS_DewPointDepression_IsbL-0875_LatLon0.15_PT030H.grib2 2026-04-22 16:02 1.1M
20260422T12Z_MSC_GDPS_DewPointDepression_IsbL-0900_LatLon0.15_PT030H.grib2 2026-04-22 16:02 1.0M
20260422T12Z_MSC_GDPS_DewPointDepression_IsbL-0925_LatLon0.15_PT030H.grib2 2026-04-22 16:02 1.0M
20260422T12Z_MSC_GDPS_DewPointDepression_IsbL-0950_LatLon0.15_PT030H.grib2 2026-04-22 16:02 1.0M
20260422T12Z_MSC_GDPS_DewPointDepression_IsbL-0970_LatLon0.15_PT030H.grib2 2026-04-22 16:02 1.0M
20260422T12Z_MSC_GDPS_DewPointDepression_IsbL-0985_LatLon0.15_PT030H.grib2 2026-04-22 16:02 1.0M
20260422T12Z_MSC_GDPS_DewPointDepression_IsbL-1000_LatLon0.15_PT030H.grib2 2026-04-22 16:02 964K
20260422T12Z_MSC_GDPS_DewPointDepression_IsbL-1015_LatLon0.15_PT030H.grib2 2026-04-22 16:02 909K
20260422T12Z_MSC_GDPS_DewPoint_AGL-2m_LatLon0.15_PT030H.grib2 2026-04-22 16:02 606K
20260422T12Z_MSC_GDPS_DownwardLongwaveRadiationFlux-Accum_Sfc_LatLon0.15_PT030H.grib2 2026-04-22 16:02 752K
20260422T12Z_MSC_GDPS_DownwardShortwaveRadiationFlux-Accum_NTAtm_LatLon0.15_PT030H.grib2 2026-04-22 16:02 231K
20260422T12Z_MSC_GDPS_DownwardShortwaveRadiationFlux-Accum_Sfc_LatLon0.15_PT030H.grib2 2026-04-22 16:02 1.0M
20260422T12Z_MSC_GDPS_FreezingRain-Accum12h_Sfc_LatLon0.15_PT030H.grib2 2026-04-22 16:02 75K
20260422T12Z_MSC_GDPS_FreezingRain-Accum1h_Sfc_LatLon0.15_PT030H.grib2 2026-04-22 16:02 34K
20260422T12Z_MSC_GDPS_FreezingRain-Accum24h_Sfc_LatLon0.15_PT030H.grib2 2026-04-22 16:02 84K
20260422T12Z_MSC_GDPS_FreezingRain-Accum3h_Sfc_LatLon0.15_PT030H.grib2 2026-04-22 16:02 44K
20260422T12Z_MSC_GDPS_FreezingRain-Accum6h_Sfc_LatLon0.15_PT030H.grib2 2026-04-22 16:02 65K
20260422T12Z_MSC_GDPS_FreezingRain-Accum_Sfc_LatLon0.15_PT030H.grib2 2026-04-22 16:02 131K
20260422T12Z_MSC_GDPS_GeopotentialHeight_IsbL-0001_LatLon0.15_PT030H.grib2 2026-04-22 16:02 399K
20260422T12Z_MSC_GDPS_GeopotentialHeight_IsbL-0005_LatLon0.15_PT030H.grib2 2026-04-22 16:02 488K
20260422T12Z_MSC_GDPS_GeopotentialHeight_IsbL-0010_LatLon0.15_PT030H.grib2 2026-04-22 16:02 419K
20260422T12Z_MSC_GDPS_GeopotentialHeight_IsbL-0020_LatLon0.15_PT030H.grib2 2026-04-22 16:02 566K
20260422T12Z_MSC_GDPS_GeopotentialHeight_IsbL-0030_LatLon0.15_PT030H.grib2 2026-04-22 16:02 572K
20260422T12Z_MSC_GDPS_GeopotentialHeight_IsbL-0050_LatLon0.15_PT030H.grib2 2026-04-22 16:02 577K
20260422T12Z_MSC_GDPS_GeopotentialHeight_IsbL-0100_LatLon0.15_PT030H.grib2 2026-04-22 16:02 614K
20260422T12Z_MSC_GDPS_GeopotentialHeight_IsbL-0150_LatLon0.15_PT030H.grib2 2026-04-22 16:02 630K
20260422T12Z_MSC_GDPS_GeopotentialHeight_IsbL-0175_LatLon0.15_PT030H.grib2 2026-04-22 16:02 634K
20260422T12Z_MSC_GDPS_GeopotentialHeight_IsbL-0200_LatLon0.15_PT030H.grib2 2026-04-22 16:02 640K
20260422T12Z_MSC_GDPS_GeopotentialHeight_IsbL-0225_LatLon0.15_PT030H.grib2 2026-04-22 16:02 644K
20260422T12Z_MSC_GDPS_GeopotentialHeight_IsbL-0250_LatLon0.15_PT030H.grib2 2026-04-22 16:02 648K
20260422T12Z_MSC_GDPS_GeopotentialHeight_IsbL-0275_LatLon0.15_PT030H.grib2 2026-04-22 16:02 647K
20260422T12Z_MSC_GDPS_GeopotentialHeight_IsbL-0300_LatLon0.15_PT030H.grib2 2026-04-22 16:02 647K
20260422T12Z_MSC_GDPS_GeopotentialHeight_IsbL-0350_LatLon0.15_PT030H.grib2 2026-04-22 16:02 636K
20260422T12Z_MSC_GDPS_GeopotentialHeight_IsbL-0400_LatLon0.15_PT030H.grib2 2026-04-22 16:02 630K
20260422T12Z_MSC_GDPS_GeopotentialHeight_IsbL-0450_LatLon0.15_PT030H.grib2 2026-04-22 16:02 619K
20260422T12Z_MSC_GDPS_GeopotentialHeight_IsbL-0500_LatLon0.15_PT030H.grib2 2026-04-22 16:02 539K
20260422T12Z_MSC_GDPS_GeopotentialHeight_IsbL-0550_LatLon0.15_PT030H.grib2 2026-04-22 16:02 533K
20260422T12Z_MSC_GDPS_GeopotentialHeight_IsbL-0600_LatLon0.15_PT030H.grib2 2026-04-22 16:02 695K
20260422T12Z_MSC_GDPS_GeopotentialHeight_IsbL-0650_LatLon0.15_PT030H.grib2 2026-04-22 16:02 694K
20260422T12Z_MSC_GDPS_GeopotentialHeight_IsbL-0700_LatLon0.15_PT030H.grib2 2026-04-22 16:02 689K
20260422T12Z_MSC_GDPS_GeopotentialHeight_IsbL-0750_LatLon0.15_PT030H.grib2 2026-04-22 16:02 697K
20260422T12Z_MSC_GDPS_GeopotentialHeight_IsbL-0800_LatLon0.15_PT030H.grib2 2026-04-22 16:02 706K
20260422T12Z_MSC_GDPS_GeopotentialHeight_IsbL-0850_LatLon0.15_PT030H.grib2 2026-04-22 16:02 712K
20260422T12Z_MSC_GDPS_GeopotentialHeight_IsbL-0875_LatLon0.15_PT030H.grib2 2026-04-22 16:02 715K
20260422T12Z_MSC_GDPS_GeopotentialHeight_IsbL-0900_LatLon0.15_PT030H.grib2 2026-04-22 16:02 723K
20260422T12Z_MSC_GDPS_GeopotentialHeight_IsbL-0925_LatLon0.15_PT030H.grib2 2026-04-22 16:02 730K
20260422T12Z_MSC_GDPS_GeopotentialHeight_IsbL-0950_LatLon0.15_PT030H.grib2 2026-04-22 16:02 741K
20260422T12Z_MSC_GDPS_GeopotentialHeight_IsbL-0970_LatLon0.15_PT030H.grib2 2026-04-22 16:02 751K
20260422T12Z_MSC_GDPS_GeopotentialHeight_IsbL-0985_LatLon0.15_PT030H.grib2 2026-04-22 16:02 767K
20260422T12Z_MSC_GDPS_GeopotentialHeight_IsbL-1000_LatLon0.15_PT030H.grib2 2026-04-22 16:02 788K
20260422T12Z_MSC_GDPS_GeopotentialHeight_IsbL-1015_LatLon0.15_PT030H.grib2 2026-04-22 16:02 813K
20260422T12Z_MSC_GDPS_Humidex_Sfc_LatLon0.15_PT030H.grib2 2026-04-22 16:02 5.3M
20260422T12Z_MSC_GDPS_IcePellets-Accum12h_Sfc_LatLon0.15_PT030H.grib2 2026-04-22 16:02 24K
20260422T12Z_MSC_GDPS_IcePellets-Accum1h_Sfc_LatLon0.15_PT030H.grib2 2026-04-22 16:02 10K
20260422T12Z_MSC_GDPS_IcePellets-Accum24h_Sfc_LatLon0.15_PT030H.grib2 2026-04-22 16:02 33K
20260422T12Z_MSC_GDPS_IcePellets-Accum3h_Sfc_LatLon0.15_PT030H.grib2 2026-04-22 16:02 12K
20260422T12Z_MSC_GDPS_IcePellets-Accum6h_Sfc_LatLon0.15_PT030H.grib2 2026-04-22 16:02 16K
20260422T12Z_MSC_GDPS_IcePellets-Accum_Sfc_LatLon0.15_PT030H.grib2 2026-04-22 16:02 40K
20260422T12Z_MSC_GDPS_KIndex_Sfc_LatLon0.15_PT030H.grib2 2026-04-22 16:02 6.4M
20260422T12Z_MSC_GDPS_LatentHeatNetFlux_Sfc_LatLon0.15_PT030H.grib2 2026-04-22 16:02 519K
20260422T12Z_MSC_GDPS_LiftedIndex-MU-VT_IsbL-0500_LatLon0.15_PT030H.grib2 2026-04-22 16:02 5.4M
20260422T12Z_MSC_GDPS_NetLongwaveRadiationFlux-Accum_Sfc_LatLon0.15_PT030H.grib2 2026-04-22 16:02 1.3M
20260422T12Z_MSC_GDPS_NetShortwaveRadiationFlux-Accum_Sfc_LatLon0.15_PT030H.grib2 2026-04-22 16:02 969K
20260422T12Z_MSC_GDPS_O3MixingRatio_LatLon0.15_PT030H.grib2 2026-04-22 16:49 2.0M
20260422T12Z_MSC_GDPS_O3_EAtm_LatLon0.15_PT030H.grib2 2026-04-22 16:49 2.5M
20260422T12Z_MSC_GDPS_PlanetaryBoundaryLayerHeight_Sfc_LatLon0.15_PT030H.grib2 2026-04-22 16:02 2.4M
20260422T12Z_MSC_GDPS_Precip-Accum12h_Sfc_LatLon0.15_PT030H.grib2 2026-04-22 16:02 4.0M
20260422T12Z_MSC_GDPS_Precip-Accum1h_Sfc_LatLon0.15_PT030H.grib2 2026-04-22 16:02 3.2M
20260422T12Z_MSC_GDPS_Precip-Accum24h_Sfc_LatLon0.15_PT030H.grib2 2026-04-22 16:02 4.6M
20260422T12Z_MSC_GDPS_Precip-Accum3h_Sfc_LatLon0.15_PT030H.grib2 2026-04-22 16:02 3.5M
20260422T12Z_MSC_GDPS_Precip-Accum6h_Sfc_LatLon0.15_PT030H.grib2 2026-04-22 16:02 3.8M
20260422T12Z_MSC_GDPS_Precip-Accum_Sfc_LatLon0.15_PT030H.grib2 2026-04-22 16:02 4.5M
20260422T12Z_MSC_GDPS_PrecipRate_Sfc_LatLon0.15_PT030H.grib2 2026-04-22 16:02 2.9M
20260422T12Z_MSC_GDPS_PrecipType-Instant_Sfc_LatLon0.15_PT030H.grib2 2026-04-22 16:02 1.5M
20260422T12Z_MSC_GDPS_Pressure_MSL_LatLon0.15_PT030H.grib2 2026-04-22 16:02 726K
20260422T12Z_MSC_GDPS_Pressure_PVU-1.5_LatLon0.15_PT030H.grib2 2026-04-22 16:02 5.8M
20260422T12Z_MSC_GDPS_Pressure_PVU-1_LatLon0.15_PT030H.grib2 2026-04-22 16:02 6.0M
20260422T12Z_MSC_GDPS_Pressure_PVU-2_LatLon0.15_PT030H.grib2 2026-04-22 16:02 6.0M
20260422T12Z_MSC_GDPS_Pressure_Sfc_LatLon0.15_PT030H.grib2 2026-04-22 16:02 1.1M
20260422T12Z_MSC_GDPS_RadiativeTemp_Sfc_LatLon0.15_PT030H.grib2 2026-04-22 16:02 657K
20260422T12Z_MSC_GDPS_Rain-Accum12h_Sfc_LatLon0.15_PT030H.grib2 2026-04-22 16:02 2.6M
20260422T12Z_MSC_GDPS_Rain-Accum1h_Sfc_LatLon0.15_PT030H.grib2 2026-04-22 16:02 1.6M
20260422T12Z_MSC_GDPS_Rain-Accum24h_Sfc_LatLon0.15_PT030H.grib2 2026-04-22 16:02 3.1M
20260422T12Z_MSC_GDPS_Rain-Accum3h_Sfc_LatLon0.15_PT030H.grib2 2026-04-22 16:02 1.7M
20260422T12Z_MSC_GDPS_Rain-Accum6h_Sfc_LatLon0.15_PT030H.grib2 2026-04-22 16:02 2.4M
20260422T12Z_MSC_GDPS_Rain-Accum_Sfc_LatLon0.15_PT030H.grib2 2026-04-22 16:02 3.3M
20260422T12Z_MSC_GDPS_RelativeHumidity_AGL-2m_LatLon0.15_PT030H.grib2 2026-04-22 16:02 1.0M
20260422T12Z_MSC_GDPS_RelativeHumidity_IsbL-0010_LatLon0.15_PT030H.grib2 2026-04-22 16:02 271K
20260422T12Z_MSC_GDPS_RelativeHumidity_IsbL-0020_LatLon0.15_PT030H.grib2 2026-04-22 16:02 286K
20260422T12Z_MSC_GDPS_RelativeHumidity_IsbL-0030_LatLon0.15_PT030H.grib2 2026-04-22 16:02 427K
20260422T12Z_MSC_GDPS_RelativeHumidity_IsbL-0050_LatLon0.15_PT030H.grib2 2026-04-22 16:02 424K
20260422T12Z_MSC_GDPS_RelativeHumidity_IsbL-0100_LatLon0.15_PT030H.grib2 2026-04-22 16:02 502K
20260422T12Z_MSC_GDPS_RelativeHumidity_IsbL-0150_LatLon0.15_PT030H.grib2 2026-04-22 16:02 654K
20260422T12Z_MSC_GDPS_RelativeHumidity_IsbL-0175_LatLon0.15_PT030H.grib2 2026-04-22 16:02 597K
20260422T12Z_MSC_GDPS_RelativeHumidity_IsbL-0200_LatLon0.15_PT030H.grib2 2026-04-22 16:02 698K
20260422T12Z_MSC_GDPS_RelativeHumidity_IsbL-0225_LatLon0.15_PT030H.grib2 2026-04-22 16:02 789K
20260422T12Z_MSC_GDPS_RelativeHumidity_IsbL-0250_LatLon0.15_PT030H.grib2 2026-04-22 16:02 877K
20260422T12Z_MSC_GDPS_RelativeHumidity_IsbL-0275_LatLon0.15_PT030H.grib2 2026-04-22 16:02 897K
20260422T12Z_MSC_GDPS_RelativeHumidity_IsbL-0300_LatLon0.15_PT030H.grib2 2026-04-22 16:02 934K
20260422T12Z_MSC_GDPS_RelativeHumidity_IsbL-0350_LatLon0.15_PT030H.grib2 2026-04-22 16:02 952K
20260422T12Z_MSC_GDPS_RelativeHumidity_IsbL-0400_LatLon0.15_PT030H.grib2 2026-04-22 16:02 1.0M
20260422T12Z_MSC_GDPS_RelativeHumidity_IsbL-0450_LatLon0.15_PT030H.grib2 2026-04-22 16:02 1.0M
20260422T12Z_MSC_GDPS_RelativeHumidity_IsbL-0500_LatLon0.15_PT030H.grib2 2026-04-22 16:02 1.0M
20260422T12Z_MSC_GDPS_RelativeHumidity_IsbL-0550_LatLon0.15_PT030H.grib2 2026-04-22 16:02 1.1M
20260422T12Z_MSC_GDPS_RelativeHumidity_IsbL-0600_LatLon0.15_PT030H.grib2 2026-04-22 16:02 1.1M
20260422T12Z_MSC_GDPS_RelativeHumidity_IsbL-0650_LatLon0.15_PT030H.grib2 2026-04-22 16:02 1.1M
20260422T12Z_MSC_GDPS_RelativeHumidity_IsbL-0700_LatLon0.15_PT030H.grib2 2026-04-22 16:02 1.1M
20260422T12Z_MSC_GDPS_RelativeHumidity_IsbL-0750_LatLon0.15_PT030H.grib2 2026-04-22 16:02 1.1M
20260422T12Z_MSC_GDPS_RelativeHumidity_IsbL-0800_LatLon0.15_PT030H.grib2 2026-04-22 16:02 1.2M
20260422T12Z_MSC_GDPS_RelativeHumidity_IsbL-0850_LatLon0.15_PT030H.grib2 2026-04-22 16:02 1.2M
20260422T12Z_MSC_GDPS_RelativeHumidity_IsbL-0875_LatLon0.15_PT030H.grib2 2026-04-22 16:02 1.2M
20260422T12Z_MSC_GDPS_RelativeHumidity_IsbL-0900_LatLon0.15_PT030H.grib2 2026-04-22 16:02 1.3M
20260422T12Z_MSC_GDPS_RelativeHumidity_IsbL-0925_LatLon0.15_PT030H.grib2 2026-04-22 16:02 1.2M
20260422T12Z_MSC_GDPS_RelativeHumidity_IsbL-0950_LatLon0.15_PT030H.grib2 2026-04-22 16:02 1.2M
20260422T12Z_MSC_GDPS_RelativeHumidity_IsbL-0970_LatLon0.15_PT030H.grib2 2026-04-22 16:02 1.2M
20260422T12Z_MSC_GDPS_RelativeHumidity_IsbL-0985_LatLon0.15_PT030H.grib2 2026-04-22 16:02 1.1M
20260422T12Z_MSC_GDPS_RelativeHumidity_IsbL-1000_LatLon0.15_PT030H.grib2 2026-04-22 16:02 1.1M
20260422T12Z_MSC_GDPS_RelativeHumidity_IsbL-1015_LatLon0.15_PT030H.grib2 2026-04-22 16:02 1.0M
20260422T12Z_MSC_GDPS_RelativeVorticity_IsbL-0200_LatLon0.15_PT030H.grib2 2026-04-22 16:02 1.5M
20260422T12Z_MSC_GDPS_RelativeVorticity_IsbL-0250_LatLon0.15_PT030H.grib2 2026-04-22 16:02 1.6M
20260422T12Z_MSC_GDPS_RelativeVorticity_IsbL-0500_LatLon0.15_PT030H.grib2 2026-04-22 16:02 1.5M
20260422T12Z_MSC_GDPS_RelativeVorticity_IsbL-0700_LatLon0.15_PT030H.grib2 2026-04-22 16:02 1.3M
20260422T12Z_MSC_GDPS_RelativeVorticity_IsbL-0850_LatLon0.15_PT030H.grib2 2026-04-22 16:02 1.6M
20260422T12Z_MSC_GDPS_Runoff-Accum_Sfc_LatLon0.15_PT030H.grib2 2026-04-22 16:02 115K
20260422T12Z_MSC_GDPS_SensibleHeatNetFlux_Sfc_LatLon0.15_PT030H.grib2 2026-04-22 16:02 466K
20260422T12Z_MSC_GDPS_ShowalterIndex_IsbL-0500_LatLon0.15_PT030H.grib2 2026-04-22 16:02 6.2M
20260422T12Z_MSC_GDPS_Snow-Accum12h_Sfc_LatLon0.15_PT030H.grib2 2026-04-22 16:02 1.5M
20260422T12Z_MSC_GDPS_Snow-Accum1h_Sfc_LatLon0.15_PT030H.grib2 2026-04-22 16:02 1.1M
20260422T12Z_MSC_GDPS_Snow-Accum24h_Sfc_LatLon0.15_PT030H.grib2 2026-04-22 16:02 1.4M
20260422T12Z_MSC_GDPS_Snow-Accum3h_Sfc_LatLon0.15_PT030H.grib2 2026-04-22 16:02 965K
20260422T12Z_MSC_GDPS_Snow-Accum6h_Sfc_LatLon0.15_PT030H.grib2 2026-04-22 16:02 1.4M
20260422T12Z_MSC_GDPS_Snow-Accum_Sfc_LatLon0.15_PT030H.grib2 2026-04-22 16:02 1.7M
20260422T12Z_MSC_GDPS_SnowDensity_Sfc_LatLon0.15_PT030H.grib2 2026-04-22 16:02 262K
20260422T12Z_MSC_GDPS_SnowDepth_Sfc_LatLon0.15_PT030H.grib2 2026-04-22 16:02 1.8M
20260422T12Z_MSC_GDPS_SoilTemp_DBS-0to10cm_LatLon0.15_PT030H.grib2 2026-04-22 16:02 500K
20260422T12Z_MSC_GDPS_SoilTemp_Sfc_LatLon0.15_PT030H.grib2 2026-04-22 16:02 579K
20260422T12Z_MSC_GDPS_SoilVolumetricIceContent_Sfc_LatLon0.15_PT030H.grib2 2026-04-22 16:02 217K
20260422T12Z_MSC_GDPS_SoilVolumetricWaterContent_DBS-0to10cm_LatLon0.15_PT030H.grib2 2026-04-22 16:02 559K
20260422T12Z_MSC_GDPS_SoilVolumetricWaterContent_DBS-0to1cm_LatLon0.15_PT030H.grib2 2026-04-22 16:02 650K
20260422T12Z_MSC_GDPS_SpecificHumidity_AGL-120m_LatLon0.15_PT030H.grib2 2026-04-22 16:02 1.1M
20260422T12Z_MSC_GDPS_SpecificHumidity_AGL-2m_LatLon0.15_PT030H.grib2 2026-04-22 16:02 1.2M
20260422T12Z_MSC_GDPS_SpecificHumidity_AGL-40m_LatLon0.15_PT030H.grib2 2026-04-22 16:02 1.1M
20260422T12Z_MSC_GDPS_SpecificHumidity_AGL-80m_LatLon0.15_PT030H.grib2 2026-04-22 16:02 1.1M
20260422T12Z_MSC_GDPS_SpecificHumidity_IsbL-0001_LatLon0.15_PT030H.grib2 2026-04-22 16:02 1.3M
20260422T12Z_MSC_GDPS_SpecificHumidity_IsbL-0005_LatLon0.15_PT030H.grib2 2026-04-22 16:02 1.5M
20260422T12Z_MSC_GDPS_SpecificHumidity_IsbL-0010_LatLon0.15_PT030H.grib2 2026-04-22 16:02 1.3M
20260422T12Z_MSC_GDPS_SpecificHumidity_IsbL-0020_LatLon0.15_PT030H.grib2 2026-04-22 16:02 1.4M
20260422T12Z_MSC_GDPS_SpecificHumidity_IsbL-0030_LatLon0.15_PT030H.grib2 2026-04-22 16:02 1.3M
20260422T12Z_MSC_GDPS_SpecificHumidity_IsbL-0050_LatLon0.15_PT030H.grib2 2026-04-22 16:02 1.4M
20260422T12Z_MSC_GDPS_SpecificHumidity_IsbL-0100_LatLon0.15_PT030H.grib2 2026-04-22 16:02 1.4M
20260422T12Z_MSC_GDPS_SpecificHumidity_IsbL-0150_LatLon0.15_PT030H.grib2 2026-04-22 16:02 1.3M
20260422T12Z_MSC_GDPS_SpecificHumidity_IsbL-0175_LatLon0.15_PT030H.grib2 2026-04-22 16:02 1.3M
20260422T12Z_MSC_GDPS_SpecificHumidity_IsbL-0200_LatLon0.15_PT030H.grib2 2026-04-22 16:02 1.3M
20260422T12Z_MSC_GDPS_SpecificHumidity_IsbL-0225_LatLon0.15_PT030H.grib2 2026-04-22 16:02 1.3M
20260422T12Z_MSC_GDPS_SpecificHumidity_IsbL-0250_LatLon0.15_PT030H.grib2 2026-04-22 16:02 1.4M
20260422T12Z_MSC_GDPS_SpecificHumidity_IsbL-0275_LatLon0.15_PT030H.grib2 2026-04-22 16:02 1.3M
20260422T12Z_MSC_GDPS_SpecificHumidity_IsbL-0300_LatLon0.15_PT030H.grib2 2026-04-22 16:02 1.2M
20260422T12Z_MSC_GDPS_SpecificHumidity_IsbL-0350_LatLon0.15_PT030H.grib2 2026-04-22 16:02 1.2M
20260422T12Z_MSC_GDPS_SpecificHumidity_IsbL-0400_LatLon0.15_PT030H.grib2 2026-04-22 16:02 1.5M
20260422T12Z_MSC_GDPS_SpecificHumidity_IsbL-0450_LatLon0.15_PT030H.grib2 2026-04-22 16:02 1.6M
20260422T12Z_MSC_GDPS_SpecificHumidity_IsbL-0500_LatLon0.15_PT030H.grib2 2026-04-22 16:02 1.4M
20260422T12Z_MSC_GDPS_SpecificHumidity_IsbL-0550_LatLon0.15_PT030H.grib2 2026-04-22 16:02 1.6M
20260422T12Z_MSC_GDPS_SpecificHumidity_IsbL-0600_LatLon0.15_PT030H.grib2 2026-04-22 16:02 1.7M
20260422T12Z_MSC_GDPS_SpecificHumidity_IsbL-0650_LatLon0.15_PT030H.grib2 2026-04-22 16:02 1.5M
20260422T12Z_MSC_GDPS_SpecificHumidity_IsbL-0700_LatLon0.15_PT030H.grib2 2026-04-22 16:02 1.6M
20260422T12Z_MSC_GDPS_SpecificHumidity_IsbL-0750_LatLon0.15_PT030H.grib2 2026-04-22 16:02 1.7M
20260422T12Z_MSC_GDPS_SpecificHumidity_IsbL-0800_LatLon0.15_PT030H.grib2 2026-04-22 16:02 1.8M
20260422T12Z_MSC_GDPS_SpecificHumidity_IsbL-0850_LatLon0.15_PT030H.grib2 2026-04-22 16:02 1.9M
20260422T12Z_MSC_GDPS_SpecificHumidity_IsbL-0875_LatLon0.15_PT030H.grib2 2026-04-22 16:02 1.9M
20260422T12Z_MSC_GDPS_SpecificHumidity_IsbL-0900_LatLon0.15_PT030H.grib2 2026-04-22 16:02 1.9M
20260422T12Z_MSC_GDPS_SpecificHumidity_IsbL-0925_LatLon0.15_PT030H.grib2 2026-04-22 16:02 1.9M
20260422T12Z_MSC_GDPS_SpecificHumidity_IsbL-0950_LatLon0.15_PT030H.grib2 2026-04-22 16:02 1.5M
20260422T12Z_MSC_GDPS_SpecificHumidity_IsbL-0970_LatLon0.15_PT030H.grib2 2026-04-22 16:02 1.5M
20260422T12Z_MSC_GDPS_SpecificHumidity_IsbL-0985_LatLon0.15_PT030H.grib2 2026-04-22 16:02 1.5M
20260422T12Z_MSC_GDPS_SpecificHumidity_IsbL-1000_LatLon0.15_PT030H.grib2 2026-04-22 16:02 1.5M
20260422T12Z_MSC_GDPS_SpecificHumidity_IsbL-1015_LatLon0.15_PT030H.grib2 2026-04-22 16:02 1.4M
20260422T12Z_MSC_GDPS_SpecificHumidity_Sfc_LatLon0.15_PT030H.grib2 2026-04-22 16:02 658K
20260422T12Z_MSC_GDPS_Thickness_IsbL-0850to0700_LatLon0.15_PT030H.grib2 2026-04-22 16:02 469K
20260422T12Z_MSC_GDPS_Thickness_IsbL-1000to0500_LatLon0.15_PT030H.grib2 2026-04-22 16:02 376K
20260422T12Z_MSC_GDPS_Thickness_IsbL-1000to0850_LatLon0.15_PT030H.grib2 2026-04-22 16:02 487K
20260422T12Z_MSC_GDPS_TotalCloudCover_Sfc_LatLon0.15_PT030H.grib2 2026-04-22 16:02 824K
20260422T12Z_MSC_GDPS_TotalTotalsIndex_Sfc_LatLon0.15_PT030H.grib2 2026-04-22 16:02 6.2M
20260422T12Z_MSC_GDPS_UVIndex-ClearSky-Max24h_Sfc_LatLon0.15_PT030H.grib2 2026-04-22 16:49 2.2M
20260422T12Z_MSC_GDPS_UVIndex-ClearSky_Sfc_LatLon0.15_PT030H.grib2 2026-04-22 16:49 1.0M
20260422T12Z_MSC_GDPS_UVIndex-Max24h_Sfc_LatLon0.15_PT030H.grib2 2026-04-22 16:49 3.2M
20260422T12Z_MSC_GDPS_UVIndex_Sfc_LatLon0.15_PT030H.grib2 2026-04-22 16:49 1.5M
20260422T12Z_MSC_GDPS_UpwardLongwaveRadiationFlux_NTAtm_LatLon0.15_PT030H.grib2 2026-04-22 16:02 836K
20260422T12Z_MSC_GDPS_VerticalVelocity_IsbL-0200_LatLon0.15_PT030H.grib2 2026-04-22 16:02 951K
20260422T12Z_MSC_GDPS_VerticalVelocity_IsbL-0250_LatLon0.15_PT030H.grib2 2026-04-22 16:02 1.1M
20260422T12Z_MSC_GDPS_VerticalVelocity_IsbL-0500_LatLon0.15_PT030H.grib2 2026-04-22 16:02 1.0M
20260422T12Z_MSC_GDPS_VerticalVelocity_IsbL-0600_LatLon0.15_PT030H.grib2 2026-04-22 16:02 1.1M
20260422T12Z_MSC_GDPS_VerticalVelocity_IsbL-0700_LatLon0.15_PT030H.grib2 2026-04-22 16:02 1.1M
20260422T12Z_MSC_GDPS_VerticalVelocity_IsbL-0850_LatLon0.15_PT030H.grib2 2026-04-22 16:02 1.6M
20260422T12Z_MSC_GDPS_WindChill_Sfc_LatLon0.15_PT030H.grib2 2026-04-22 16:02 5.4M
20260422T12Z_MSC_GDPS_WindDir_AGL-10m_LatLon0.15_PT030H.grib2 2026-04-22 16:02 1.3M
20260422T12Z_MSC_GDPS_WindDir_AGL-120m_LatLon0.15_PT030H.grib2 2026-04-22 16:02 1.3M
20260422T12Z_MSC_GDPS_WindDir_AGL-40m_LatLon0.15_PT030H.grib2 2026-04-22 16:02 1.4M
20260422T12Z_MSC_GDPS_WindDir_AGL-80m_LatLon0.15_PT030H.grib2 2026-04-22 16:02 1.4M
20260422T12Z_MSC_GDPS_WindDir_IsbL-0001_LatLon0.15_PT030H.grib2 2026-04-22 16:02 656K
20260422T12Z_MSC_GDPS_WindDir_IsbL-0005_LatLon0.15_PT030H.grib2 2026-04-22 16:02 807K
20260422T12Z_MSC_GDPS_WindDir_IsbL-0010_LatLon0.15_PT030H.grib2 2026-04-22 16:02 857K
20260422T12Z_MSC_GDPS_WindDir_IsbL-0020_LatLon0.15_PT030H.grib2 2026-04-22 16:02 952K
20260422T12Z_MSC_GDPS_WindDir_IsbL-0030_LatLon0.15_PT030H.grib2 2026-04-22 16:02 922K
20260422T12Z_MSC_GDPS_WindDir_IsbL-0050_LatLon0.15_PT030H.grib2 2026-04-22 16:02 970K
20260422T12Z_MSC_GDPS_WindDir_IsbL-0100_LatLon0.15_PT030H.grib2 2026-04-22 16:02 1.0M
20260422T12Z_MSC_GDPS_WindDir_IsbL-0150_LatLon0.15_PT030H.grib2 2026-04-22 16:02 1.0M
20260422T12Z_MSC_GDPS_WindDir_IsbL-0175_LatLon0.15_PT030H.grib2 2026-04-22 16:02 1.1M
20260422T12Z_MSC_GDPS_WindDir_IsbL-0200_LatLon0.15_PT030H.grib2 2026-04-22 16:02 1.1M
20260422T12Z_MSC_GDPS_WindDir_IsbL-0225_LatLon0.15_PT030H.grib2 2026-04-22 16:02 1.1M
20260422T12Z_MSC_GDPS_WindDir_IsbL-0250_LatLon0.15_PT030H.grib2 2026-04-22 16:02 1.1M
20260422T12Z_MSC_GDPS_WindDir_IsbL-0275_LatLon0.15_PT030H.grib2 2026-04-22 16:02 1.2M
20260422T12Z_MSC_GDPS_WindDir_IsbL-0300_LatLon0.15_PT030H.grib2 2026-04-22 16:02 1.2M
20260422T12Z_MSC_GDPS_WindDir_IsbL-0350_LatLon0.15_PT030H.grib2 2026-04-22 16:02 1.2M
20260422T12Z_MSC_GDPS_WindDir_IsbL-0400_LatLon0.15_PT030H.grib2 2026-04-22 16:02 1.3M
20260422T12Z_MSC_GDPS_WindDir_IsbL-0450_LatLon0.15_PT030H.grib2 2026-04-22 16:02 1.3M
20260422T12Z_MSC_GDPS_WindDir_IsbL-0500_LatLon0.15_PT030H.grib2 2026-04-22 16:02 1.4M
20260422T12Z_MSC_GDPS_WindDir_IsbL-0550_LatLon0.15_PT030H.grib2 2026-04-22 16:02 1.4M
20260422T12Z_MSC_GDPS_WindDir_IsbL-0600_LatLon0.15_PT030H.grib2 2026-04-22 16:02 1.5M
20260422T12Z_MSC_GDPS_WindDir_IsbL-0650_LatLon0.15_PT030H.grib2 2026-04-22 16:02 1.6M
20260422T12Z_MSC_GDPS_WindDir_IsbL-0700_LatLon0.15_PT030H.grib2 2026-04-22 16:02 1.6M
20260422T12Z_MSC_GDPS_WindDir_IsbL-0750_LatLon0.15_PT030H.grib2 2026-04-22 16:02 1.7M
20260422T12Z_MSC_GDPS_WindDir_IsbL-0800_LatLon0.15_PT030H.grib2 2026-04-22 16:02 1.8M
20260422T12Z_MSC_GDPS_WindDir_IsbL-0850_LatLon0.15_PT030H.grib2 2026-04-22 16:02 1.9M
20260422T12Z_MSC_GDPS_WindDir_IsbL-0875_LatLon0.15_PT030H.grib2 2026-04-22 16:02 1.9M
20260422T12Z_MSC_GDPS_WindDir_IsbL-0900_LatLon0.15_PT030H.grib2 2026-04-22 16:02 2.0M
20260422T12Z_MSC_GDPS_WindDir_IsbL-0925_LatLon0.15_PT030H.grib2 2026-04-22 16:02 2.0M
20260422T12Z_MSC_GDPS_WindDir_IsbL-0950_LatLon0.15_PT030H.grib2 2026-04-22 16:02 2.0M
20260422T12Z_MSC_GDPS_WindDir_IsbL-0970_LatLon0.15_PT030H.grib2 2026-04-22 16:02 2.0M
20260422T12Z_MSC_GDPS_WindDir_IsbL-0985_LatLon0.15_PT030H.grib2 2026-04-22 16:02 2.0M
20260422T12Z_MSC_GDPS_WindDir_IsbL-1000_LatLon0.15_PT030H.grib2 2026-04-22 16:02 2.0M
20260422T12Z_MSC_GDPS_WindDir_IsbL-1015_LatLon0.15_PT030H.grib2 2026-04-22 16:02 2.0M
20260422T12Z_MSC_GDPS_WindGust-Max_AGL-10m_LatLon0.15_PT030H.grib2 2026-04-22 16:02 2.2M
20260422T12Z_MSC_GDPS_WindGust-Min_AGL-10m_LatLon0.15_PT030H.grib2 2026-04-22 16:02 2.2M
20260422T12Z_MSC_GDPS_WindGust_AGL-10m_LatLon0.15_PT030H.grib2 2026-04-22 16:02 2.2M
20260422T12Z_MSC_GDPS_WindSpeed_AGL-10m_LatLon0.15_PT030H.grib2 2026-04-22 16:02 1.1M
20260422T12Z_MSC_GDPS_WindSpeed_AGL-120m_LatLon0.15_PT030H.grib2 2026-04-22 16:02 1.3M
20260422T12Z_MSC_GDPS_WindSpeed_AGL-40m_LatLon0.15_PT030H.grib2 2026-04-22 16:02 1.2M
20260422T12Z_MSC_GDPS_WindSpeed_AGL-80m_LatLon0.15_PT030H.grib2 2026-04-22 16:02 1.3M
20260422T12Z_MSC_GDPS_WindSpeed_IsbL-0001_LatLon0.15_PT030H.grib2 2026-04-22 16:02 642K
20260422T12Z_MSC_GDPS_WindSpeed_IsbL-0005_LatLon0.15_PT030H.grib2 2026-04-22 16:02 693K
20260422T12Z_MSC_GDPS_WindSpeed_IsbL-0010_LatLon0.15_PT030H.grib2 2026-04-22 16:02 633K
20260422T12Z_MSC_GDPS_WindSpeed_IsbL-0020_LatLon0.15_PT030H.grib2 2026-04-22 16:02 864K
20260422T12Z_MSC_GDPS_WindSpeed_IsbL-0030_LatLon0.15_PT030H.grib2 2026-04-22 16:02 942K
20260422T12Z_MSC_GDPS_WindSpeed_IsbL-0050_LatLon0.15_PT030H.grib2 2026-04-22 16:02 1.0M
20260422T12Z_MSC_GDPS_WindSpeed_IsbL-0100_LatLon0.15_PT030H.grib2 2026-04-22 16:02 1.1M
20260422T12Z_MSC_GDPS_WindSpeed_IsbL-0150_LatLon0.15_PT030H.grib2 2026-04-22 16:02 1.0M
20260422T12Z_MSC_GDPS_WindSpeed_IsbL-0175_LatLon0.15_PT030H.grib2 2026-04-22 16:02 1.0M
20260422T12Z_MSC_GDPS_WindSpeed_IsbL-0200_LatLon0.15_PT030H.grib2 2026-04-22 16:02 1.1M
20260422T12Z_MSC_GDPS_WindSpeed_IsbL-0225_LatLon0.15_PT030H.grib2 2026-04-22 16:02 1.1M
20260422T12Z_MSC_GDPS_WindSpeed_IsbL-0250_LatLon0.15_PT030H.grib2 2026-04-22 16:02 1.1M
20260422T12Z_MSC_GDPS_WindSpeed_IsbL-0275_LatLon0.15_PT030H.grib2 2026-04-22 16:02 1.1M
20260422T12Z_MSC_GDPS_WindSpeed_IsbL-0300_LatLon0.15_PT030H.grib2 2026-04-22 16:02 1.1M
20260422T12Z_MSC_GDPS_WindSpeed_IsbL-0350_LatLon0.15_PT030H.grib2 2026-04-22 16:02 1.1M
20260422T12Z_MSC_GDPS_WindSpeed_IsbL-0400_LatLon0.15_PT030H.grib2 2026-04-22 16:02 1.1M
20260422T12Z_MSC_GDPS_WindSpeed_IsbL-0450_LatLon0.15_PT030H.grib2 2026-04-22 16:02 1.1M
20260422T12Z_MSC_GDPS_WindSpeed_IsbL-0500_LatLon0.15_PT030H.grib2 2026-04-22 16:02 1.1M
20260422T12Z_MSC_GDPS_WindSpeed_IsbL-0550_LatLon0.15_PT030H.grib2 2026-04-22 16:02 1.1M
20260422T12Z_MSC_GDPS_WindSpeed_IsbL-0600_LatLon0.15_PT030H.grib2 2026-04-22 16:02 1.1M
20260422T12Z_MSC_GDPS_WindSpeed_IsbL-0650_LatLon0.15_PT030H.grib2 2026-04-22 16:02 1.2M
20260422T12Z_MSC_GDPS_WindSpeed_IsbL-0700_LatLon0.15_PT030H.grib2 2026-04-22 16:02 1.2M
20260422T12Z_MSC_GDPS_WindSpeed_IsbL-0750_LatLon0.15_PT030H.grib2 2026-04-22 16:02 1.5M
20260422T12Z_MSC_GDPS_WindSpeed_IsbL-0800_LatLon0.15_PT030H.grib2 2026-04-22 16:02 1.6M
20260422T12Z_MSC_GDPS_WindSpeed_IsbL-0850_LatLon0.15_PT030H.grib2 2026-04-22 16:02 1.7M
20260422T12Z_MSC_GDPS_WindSpeed_IsbL-0875_LatLon0.15_PT030H.grib2 2026-04-22 16:02 1.8M
20260422T12Z_MSC_GDPS_WindSpeed_IsbL-0900_LatLon0.15_PT030H.grib2 2026-04-22 16:02 1.8M
20260422T12Z_MSC_GDPS_WindSpeed_IsbL-0925_LatLon0.15_PT030H.grib2 2026-04-22 16:02 1.9M
20260422T12Z_MSC_GDPS_WindSpeed_IsbL-0950_LatLon0.15_PT030H.grib2 2026-04-22 16:02 1.9M
20260422T12Z_MSC_GDPS_WindSpeed_IsbL-0970_LatLon0.15_PT030H.grib2 2026-04-22 16:02 1.9M
20260422T12Z_MSC_GDPS_WindSpeed_IsbL-0985_LatLon0.15_PT030H.grib2 2026-04-22 16:02 1.9M
20260422T12Z_MSC_GDPS_WindSpeed_IsbL-1000_LatLon0.15_PT030H.grib2 2026-04-22 16:02 1.8M
20260422T12Z_MSC_GDPS_WindSpeed_IsbL-1015_LatLon0.15_PT030H.grib2 2026-04-22 16:02 1.8M
20260422T12Z_MSC_GDPS_WindU_AGL-10m_LatLon0.15_PT030H.grib2 2026-04-22 16:02 1.3M
20260422T12Z_MSC_GDPS_WindU_AGL-120m_LatLon0.15_PT030H.grib2 2026-04-22 16:02 1.0M
20260422T12Z_MSC_GDPS_WindU_AGL-40m_LatLon0.15_PT030H.grib2 2026-04-22 16:02 1.0M
20260422T12Z_MSC_GDPS_WindU_AGL-80m_LatLon0.15_PT030H.grib2 2026-04-22 16:02 1.0M
20260422T12Z_MSC_GDPS_WindU_IsbL-0001_LatLon0.15_PT030H.grib2 2026-04-22 16:02 644K
20260422T12Z_MSC_GDPS_WindU_IsbL-0005_LatLon0.15_PT030H.grib2 2026-04-22 16:02 687K
20260422T12Z_MSC_GDPS_WindU_IsbL-0010_LatLon0.15_PT030H.grib2 2026-04-22 16:02 706K
20260422T12Z_MSC_GDPS_WindU_IsbL-0020_LatLon0.15_PT030H.grib2 2026-04-22 16:02 661K
20260422T12Z_MSC_GDPS_WindU_IsbL-0030_LatLon0.15_PT030H.grib2 2026-04-22 16:02 740K
20260422T12Z_MSC_GDPS_WindU_IsbL-0050_LatLon0.15_PT030H.grib2 2026-04-22 16:02 705K
20260422T12Z_MSC_GDPS_WindU_IsbL-0100_LatLon0.15_PT030H.grib2 2026-04-22 16:02 926K
20260422T12Z_MSC_GDPS_WindU_IsbL-0150_LatLon0.15_PT030H.grib2 2026-04-22 16:02 1.0M
20260422T12Z_MSC_GDPS_WindU_IsbL-0175_LatLon0.15_PT030H.grib2 2026-04-22 16:02 825K
20260422T12Z_MSC_GDPS_WindU_IsbL-0200_LatLon0.15_PT030H.grib2 2026-04-22 16:02 856K
20260422T12Z_MSC_GDPS_WindU_IsbL-0225_LatLon0.15_PT030H.grib2 2026-04-22 16:02 869K
20260422T12Z_MSC_GDPS_WindU_IsbL-0250_LatLon0.15_PT030H.grib2 2026-04-22 16:02 869K
20260422T12Z_MSC_GDPS_WindU_IsbL-0275_LatLon0.15_PT030H.grib2 2026-04-22 16:02 952K
20260422T12Z_MSC_GDPS_WindU_IsbL-0300_LatLon0.15_PT030H.grib2 2026-04-22 16:02 943K
20260422T12Z_MSC_GDPS_WindU_IsbL-0350_LatLon0.15_PT030H.grib2 2026-04-22 16:02 896K
20260422T12Z_MSC_GDPS_WindU_IsbL-0400_LatLon0.15_PT030H.grib2 2026-04-22 16:02 902K
20260422T12Z_MSC_GDPS_WindU_IsbL-0450_LatLon0.15_PT030H.grib2 2026-04-22 16:02 904K
20260422T12Z_MSC_GDPS_WindU_IsbL-0500_LatLon0.15_PT030H.grib2 2026-04-22 16:02 909K
20260422T12Z_MSC_GDPS_WindU_IsbL-0550_LatLon0.15_PT030H.grib2 2026-04-22 16:02 1.1M
20260422T12Z_MSC_GDPS_WindU_IsbL-0600_LatLon0.15_PT030H.grib2 2026-04-22 16:02 1.2M
20260422T12Z_MSC_GDPS_WindU_IsbL-0650_LatLon0.15_PT030H.grib2 2026-04-22 16:02 1.2M
20260422T12Z_MSC_GDPS_WindU_IsbL-0700_LatLon0.15_PT030H.grib2 2026-04-22 16:02 1.2M
20260422T12Z_MSC_GDPS_WindU_IsbL-0750_LatLon0.15_PT030H.grib2 2026-04-22 16:02 1.3M
20260422T12Z_MSC_GDPS_WindU_IsbL-0800_LatLon0.15_PT030H.grib2 2026-04-22 16:02 1.4M
20260422T12Z_MSC_GDPS_WindU_IsbL-0850_LatLon0.15_PT030H.grib2 2026-04-22 16:02 1.4M
20260422T12Z_MSC_GDPS_WindU_IsbL-0875_LatLon0.15_PT030H.grib2 2026-04-22 16:02 1.4M
20260422T12Z_MSC_GDPS_WindU_IsbL-0900_LatLon0.15_PT030H.grib2 2026-04-22 16:02 1.5M
20260422T12Z_MSC_GDPS_WindU_IsbL-0925_LatLon0.15_PT030H.grib2 2026-04-22 16:02 1.5M
20260422T12Z_MSC_GDPS_WindU_IsbL-0950_LatLon0.15_PT030H.grib2 2026-04-22 16:02 1.4M
20260422T12Z_MSC_GDPS_WindU_IsbL-0970_LatLon0.15_PT030H.grib2 2026-04-22 16:02 1.4M
20260422T12Z_MSC_GDPS_WindU_IsbL-0985_LatLon0.15_PT030H.grib2 2026-04-22 16:02 1.4M
20260422T12Z_MSC_GDPS_WindU_IsbL-1000_LatLon0.15_PT030H.grib2 2026-04-22 16:02 1.4M
20260422T12Z_MSC_GDPS_WindU_IsbL-1015_LatLon0.15_PT030H.grib2 2026-04-22 16:02 1.4M
20260422T12Z_MSC_GDPS_WindV_AGL-10m_LatLon0.15_PT030H.grib2 2026-04-22 16:02 1.6M
20260422T12Z_MSC_GDPS_WindV_AGL-120m_LatLon0.15_PT030H.grib2 2026-04-22 16:02 1.0M
20260422T12Z_MSC_GDPS_WindV_AGL-40m_LatLon0.15_PT030H.grib2 2026-04-22 16:02 1.0M
20260422T12Z_MSC_GDPS_WindV_AGL-80m_LatLon0.15_PT030H.grib2 2026-04-22 16:02 1.0M
20260422T12Z_MSC_GDPS_WindV_IsbL-0001_LatLon0.15_PT030H.grib2 2026-04-22 16:02 770K
20260422T12Z_MSC_GDPS_WindV_IsbL-0005_LatLon0.15_PT030H.grib2 2026-04-22 16:02 851K
20260422T12Z_MSC_GDPS_WindV_IsbL-0010_LatLon0.15_PT030H.grib2 2026-04-22 16:02 889K
20260422T12Z_MSC_GDPS_WindV_IsbL-0020_LatLon0.15_PT030H.grib2 2026-04-22 16:02 855K
20260422T12Z_MSC_GDPS_WindV_IsbL-0030_LatLon0.15_PT030H.grib2 2026-04-22 16:02 850K
20260422T12Z_MSC_GDPS_WindV_IsbL-0050_LatLon0.15_PT030H.grib2 2026-04-22 16:02 911K
20260422T12Z_MSC_GDPS_WindV_IsbL-0100_LatLon0.15_PT030H.grib2 2026-04-22 16:02 1.1M
20260422T12Z_MSC_GDPS_WindV_IsbL-0150_LatLon0.15_PT030H.grib2 2026-04-22 16:02 1.0M
20260422T12Z_MSC_GDPS_WindV_IsbL-0175_LatLon0.15_PT030H.grib2 2026-04-22 16:02 1.0M
20260422T12Z_MSC_GDPS_WindV_IsbL-0200_LatLon0.15_PT030H.grib2 2026-04-22 16:02 1.1M
20260422T12Z_MSC_GDPS_WindV_IsbL-0225_LatLon0.15_PT030H.grib2 2026-04-22 16:02 865K
20260422T12Z_MSC_GDPS_WindV_IsbL-0250_LatLon0.15_PT030H.grib2 2026-04-22 16:02 866K
20260422T12Z_MSC_GDPS_WindV_IsbL-0275_LatLon0.15_PT030H.grib2 2026-04-22 16:02 889K
20260422T12Z_MSC_GDPS_WindV_IsbL-0300_LatLon0.15_PT030H.grib2 2026-04-22 16:02 876K
20260422T12Z_MSC_GDPS_WindV_IsbL-0350_LatLon0.15_PT030H.grib2 2026-04-22 16:02 888K
20260422T12Z_MSC_GDPS_WindV_IsbL-0400_LatLon0.15_PT030H.grib2 2026-04-22 16:02 889K
20260422T12Z_MSC_GDPS_WindV_IsbL-0450_LatLon0.15_PT030H.grib2 2026-04-22 16:02 891K
20260422T12Z_MSC_GDPS_WindV_IsbL-0500_LatLon0.15_PT030H.grib2 2026-04-22 16:02 1.1M
20260422T12Z_MSC_GDPS_WindV_IsbL-0550_LatLon0.15_PT030H.grib2 2026-04-22 16:02 1.1M
20260422T12Z_MSC_GDPS_WindV_IsbL-0600_LatLon0.15_PT030H.grib2 2026-04-22 16:02 1.1M
20260422T12Z_MSC_GDPS_WindV_IsbL-0650_LatLon0.15_PT030H.grib2 2026-04-22 16:02 1.2M
20260422T12Z_MSC_GDPS_WindV_IsbL-0700_LatLon0.15_PT030H.grib2 2026-04-22 16:02 1.2M
20260422T12Z_MSC_GDPS_WindV_IsbL-0750_LatLon0.15_PT030H.grib2 2026-04-22 16:02 1.2M
20260422T12Z_MSC_GDPS_WindV_IsbL-0800_LatLon0.15_PT030H.grib2 2026-04-22 16:02 1.3M
20260422T12Z_MSC_GDPS_WindV_IsbL-0850_LatLon0.15_PT030H.grib2 2026-04-22 16:02 1.4M
20260422T12Z_MSC_GDPS_WindV_IsbL-0875_LatLon0.15_PT030H.grib2 2026-04-22 16:02 1.4M
20260422T12Z_MSC_GDPS_WindV_IsbL-0900_LatLon0.15_PT030H.grib2 2026-04-22 16:02 1.5M
20260422T12Z_MSC_GDPS_WindV_IsbL-0925_LatLon0.15_PT030H.grib2 2026-04-22 16:02 1.5M
20260422T12Z_MSC_GDPS_WindV_IsbL-0950_LatLon0.15_PT030H.grib2 2026-04-22 16:02 1.4M
20260422T12Z_MSC_GDPS_WindV_IsbL-0970_LatLon0.15_PT030H.grib2 2026-04-22 16:02 1.4M
20260422T12Z_MSC_GDPS_WindV_IsbL-0985_LatLon0.15_PT030H.grib2 2026-04-22 16:02 1.4M
20260422T12Z_MSC_GDPS_WindV_IsbL-1000_LatLon0.15_PT030H.grib2 2026-04-22 16:02 1.7M
20260422T12Z_MSC_GDPS_WindV_IsbL-1015_LatLon0.15_PT030H.grib2 2026-04-22 16:02 1.7M